Location: Barzun
(43.2167°N, 0.1333°W)
Time: 03:24:38
(UTC+00:00)

Daily predictions for brighter satellites

Satellite Brightness Start Highest point End
(mag) Time Altitude Azimuth Time Altitude Azimuth Time Altitude Azimuth
Cosmos 2344 4.4 02:37:40 44° ENE 02:37:40 44° ENE 02:42:54 10° NE
USA 234 4.4 02:55:24 10° NE 02:59:22 36° NNE 02:59:22 36° NNE
Cosmos 1833 Rocket 3.7 03:33:51 40° SE 03:34:38 42° ESE 03:39:56 10° NE
NOSS 3-2 (C) 3.8 03:43:22 53° N 03:43:22 53° N 03:48:29 10° NNE
CENTAUR R/B 2.7 03:50:12 60° NNW 03:50:12 60° NNW 03:56:27 10° NNE
Cosmos 1656 3.9 03:55:16 62° SSE 03:55:16 62° SSE 03:59:55 10° SSE
Cosmos 2082 Rocket 3.5 03:52:30 10° S 03:57:35 37° ESE 04:02:41 10° NE
Cosmos 1461 4.0 03:57:50 46° ESE 03:57:52 46° ESE 04:02:21 10° NE
ISS -1.5 04:09:06 24° NE 04:09:06 24° NE 04:10:35 10° ENE
CZ-2C R/B 2.3 04:03:59 10° NNE 04:08:51 85° NE 04:08:51 85° NE
Lacrosse 4 Rocket 3.2 04:18:22 21° N 04:18:22 21° N 04:19:56 10° NNE
Cosmos 1697 Rocket 2.7 04:16:50 23° NNW 04:20:33 82° ENE 04:26:13 10° SSE
COSMOS 2406 3.1 04:21:37 60° W 04:22:10 63° WNW 04:27:49 10° NNE
Lacrosse 5 rocket 2.0 04:25:45 40° NNE 04:25:45 40° NNE 04:28:23 10° NE
Meteor 2-5 Rocket 4.0 04:20:31 10° S 04:26:09 71° E 04:31:58 10° NNE
USA 238 DEB 4.5 04:28:30 31° NW 04:29:12 31° NW 04:35:19 10° NNE
USA 238 4.5 04:28:35 31° NW 04:29:18 32° NW 04:35:26 10° NNE
FENGYUN 3A 4.1 04:25:37 10° NNE 04:31:01 64° E 04:36:25 10° S
PAYLOAD A 4.2 04:30:33 10° N 04:35:28 48° WNW 04:35:51 47° W
ATLAS 3B R/B 2.5 04:32:59 21° SW 04:37:35 90° NW 04:44:16 10° NE
ERS-2 1.9 04:35:04 10° SSE 04:38:42 84° W 04:39:17 61° NNW
Cosmos 1726 Rocket 4.0 04:36:05 10° N 04:40:32 63° E 04:44:57 10° SSE
Cosmos 967 Rocket 4.4 04:37:13 15° NNW 04:42:35 90° WSW 04:48:50 10° SSE
Cosmos 1302 Rocket 4.4 04:43:08 39° WSW 04:43:08 39° WSW 04:47:36 10° S
Cosmos 1980 Rocket 2.5 04:37:44 10° NNW 04:43:20 67° ENE 04:48:53 10° SE
Abrixas rocket 2.7 04:43:59 47° NE 04:43:59 47° NE 04:46:26 10° E
USA 234 4.5 04:38:23 10° NE 04:43:45 28° N 04:46:42 20° NW
Meteor 2-13 Rocket 4.4 04:38:18 10° S 04:44:27 89° E 04:50:38 10° N
Cosmos 1092 Rocket 4.0 04:39:17 10° S 04:45:27 80° E 04:51:42 10° N
Cosmos 2228 2.9 04:41:17 10° N 04:45:41 84° W 04:50:03 10° S
Geosat 3.9 04:41:16 10° SSE 04:46:17 81° WSW 04:51:09 11° NNW
ADEOS Rocket 3.0 04:41:36 10° SSW 04:46:45 41° W 04:52:01 10° NNW
Nadezhda 4 Rocket 3.9 04:43:42 10° SSW 04:49:43 59° WNW 04:55:47 10° N
Cosmos 2344 4.4 04:47:42 26° WNW 04:50:22 32° NNW 04:57:42 10° NNE
ADEOS 3.5 04:46:51 10° NNE 04:52:06 81° WNW 04:57:18 10° SSW
Cosmos 44 Rocket 4.3 04:53:07 29° WSW 04:53:07 29° WSW 04:57:18 10° S
CZ-3 R/B 3.9 04:35:58 18° WSW 04:53:00 41° SSW 05:00:41 10° ESE
Aureole 3 4.3 04:49:54 10° N 04:54:07 60° E 04:59:29 10° SSE
SAR-Lupe-1 4.4 04:51:13 10° SSE 04:54:44 67° ENE 04:58:19 10° N
Cosmos 1606 Rocket 3.5 04:51:56 10° NNW 04:56:23 69° W 05:00:49 10° S
Cosmos 1400 Rocket 2.8 04:53:03 10° N 04:57:00 77° E 05:00:53 10° SSE
CZ-4B R/B 3.9 04:53:31 10° NNE 04:57:44 87° ESE 05:01:43 10° SSW
Cosmos 2360 4.2 04:55:37 10° NNW 05:01:14 61° WSW 05:06:48 10° S
TELKOM 3 4.0 05:01:47 43° WNW 05:02:25 51° NNW 05:06:08 10° ENE
COSMO-SKYMED 1 2.9 05:00:42 10° SSE 05:04:59 68° ENE 05:09:19 10° N
CZ-4B R/B 1.7 05:04:23 10° S 05:07:42 45° W 05:10:16 15° NNW
Cosmos 1627 Rocket 4.5 05:03:39 10° S 05:10:03 83° W 05:16:29 10° N
Cosmos 1300 2.7 05:06:48 10° NNW 05:10:33 53° W 05:14:15 10° S
ARGOS Delta rocket 4.1 05:05:45 10° N 05:11:12 85° W 05:16:41 10° SSW
Cosmos 220 Rocket 4.4 05:09:17 15° NW 05:12:35 41° WSW 05:16:43 10° S
ALOS 2.4 05:09:13 10° N 05:13:44 50° WNW 05:18:14 10° SSW
Cosmos 2278 3.6 05:08:10 10° NNW 05:13:47 69° WSW 05:19:23 10° SSE
Cosmos 1689 Rocket 2.1 05:11:29 10° SSE 05:14:24 79° ENE 05:17:20 10° N
Cosmos 1626 3.0 05:14:35 27° WNW 05:14:40 27° WNW 05:17:52 10° NNW
SL-14 R/B 3.8 05:11:10 10° SW 05:14:50 35° WNW 05:18:34 10° N
Cosmos 2322 Rocket 3.9 05:10:06 10° N 05:15:07 31° NE 05:20:05 10° ESE
Meteor 2-10 Rocket 4.2 05:10:19 10° N 05:15:15 55° ENE 05:20:15 10° SSE
Cosmos 1833 Rocket 3.5 05:15:37 19° WSW 05:18:41 31° NW 05:23:40 10° N
Cosmos 1992 Rocket 4.3 05:16:13 10° NNW 05:21:09 44° WSW 05:26:04 10° S
Cosmos 2084 3.4 05:18:52 10° SW 05:23:10 65° NW 05:27:32 10° NNE
deb Chang Zheng 4 3.9 05:19:43 10° N 05:23:44 42° WNW 05:27:46 10° SW
BREEZE-M DEB (TANK) 3.5 05:25:58 14° SW 05:26:04 14° SW 05:27:24 10° S
METEOR-M 4.2 05:21:35 10° N 05:26:46 52° WNW 05:31:55 10° SW
H-2A R/B 4.2 05:24:41 10° NNE 05:28:46 37° E 05:32:40 10° SSE
Cosmos 1315 Rocket 3.5 05:24:43 10° N 05:28:49 60° ENE 05:32:53 10° SSE
Elektron 1 4.4 05:27:38 19° WSW 05:29:24 34° NW 05:32:06 10° NNE
Okean 1-7 Rocket 3.6 05:25:01 10° SSW 05:29:31 64° W 05:34:02 10° N
SJ-12 3.9 05:25:28 10° N 05:29:33 62° WNW 05:33:34 10° SSW
Cosmos 2058 Rocket 3.1 05:26:28 10° NNW 05:30:54 60° W 05:35:16 10° S
SL-19 R/B 4.1 05:28:18 10° N 05:30:55 34° WNW 05:33:35 10° SW
Cosmos 1484 Rocket 3.7 05:29:47 10° NNW 05:32:59 25° WNW 05:36:07 10° SW
ASTRO F (AKARI) 4.3 05:29:49 10° NNE 05:33:19 83° WNW 05:36:39 10° SSW
Cosmos 1428 Rocket 4.5 05:28:12 10° SSW 05:34:20 60° W 05:40:28 10° N
H-2A R/B 3.5 05:31:49 10° NNE 05:35:36 58° E 05:39:23 10° S
Cosmos 1461 4.2 05:34:16 15° W 05:37:12 26° NW 05:41:10 10° NNE
Meteor 1-24 Rocket 4.2 05:32:37 10° SW 05:37:50 38° WNW 05:43:17 10° N
Cosmos 1892 Rocket 4.1 05:34:10 10° SW 05:38:09 35° WNW 05:42:13 10° N
Cosmos 1553 Rocket 4.0 05:32:11 10° N 05:38:21 89° WSW 05:44:24 10° S
USA 290 3.8 05:39:33 14° W 05:40:56 18° WNW 05:43:17 10° NNW
Cosmos 2082 Rocket 2.8 05:36:34 10° WSW 05:41:39 35° NW 05:46:47 10° N
CENTAUR R/B 4.1 05:37:24 12° WNW 05:41:44 21° NNW 05:47:11 10° NNE
Meteor PRIRODA 3.7 05:38:32 10° N 05:42:07 55° WNW 05:45:42 10° SSW
CREW DRAGON DEMO-1 DEB 3.5 05:40:30 11° NW 05:43:16 48° NNE 05:46:12 10° ESE
Cosmos 614 Rocket 4.0 05:38:23 10° SSW 05:43:27 61° WNW 05:48:32 10° NNE
ISS -2.3 05:42:04 13° WNW 05:44:21 24° NNW 05:47:10 10° NE
CZ-2C R/B 4.2 05:44:24 10° NNW 05:46:24 12° WNW 05:48:13 10° W
Cosmos 2026 Rocket 4.3 05:40:44 10° SSW 05:46:50 47° WNW 05:52:58 10° N
Cosmos 2251 Rocket 4.4 05:46:39 10° WSW 05:51:17 29° WNW 05:55:55 10° N
SL-16 R/B 2.6 05:45:50 10° NNW 05:51:31 70° ENE 05:57:10 10° SSE
SKYMED 2 4.2 05:49:09 10° SSW 05:53:08 36° W 05:57:09 10° NNW
Meteor 2-15 4.4 05:48:45 10° N 05:54:51 78° W 06:00:53 10° S
Meteor 1-31 Rocket 4.2 05:54:47 10° NNW 05:57:39 20° WNW 06:00:31 10° WSW
[s.n.46727] 4.3 05:56:38 10° WNW 05:58:44 19° NNW 06:00:49 10° NNE
Cosmos 1455 2.2 05:54:54 10° NNW 05:58:47 77° W 06:02:38 10° S
[s.n.46723] 4.3 05:56:38 10° WNW 05:58:48 20° NNW 06:00:58 10° NNE
[s.n.46707] 4.3 05:56:49 10° WNW 05:58:54 19° NNW 06:01:00 10° NNE
[s.n.46708] 4.3 05:56:54 10° WNW 05:58:59 19° NNW 06:01:05 10° NNE
[s.n.46719] 4.3 05:57:00 10° WNW 05:59:05 19° NNW 06:01:10 10° NNE
[s.n.46724] 4.3 05:57:05 10° WNW 05:59:10 19° NNW 06:01:16 10° NNE
[s.n.46687] 4.3 05:57:11 10° WNW 05:59:15 19° NNW 06:01:21 10° NNE
[s.n.46696] 4.3 05:57:16 10° WNW 05:59:22 19° NNW 06:01:27 10° NNE
[s.n.46720] 4.3 05:57:22 10° WNW 05:59:27 19° NNW 06:01:32 10° NNE
[s.n.46676] 4.3 05:57:28 10° WNW 05:59:32 19° NNW 06:01:37 10° NNE
[s.n.46721] 4.3 05:57:34 10° WNW 05:59:38 19° NNW 06:01:44 10° NNE
[s.n.46728] 4.3 05:57:38 10° WNW 05:59:43 19° NNW 06:01:49 10° NNE
[s.n.46690] 4.3 05:57:44 10° WNW 05:59:49 19° NNW 06:01:53 10° NNE
[s.n.46694] 4.3 05:57:48 10° WNW 05:59:53 19° NNW 06:01:57 10° NNE
[s.n.46702] 4.3 05:57:56 10° WNW 06:00:01 19° NNW 06:02:05 10° NNE
[s.n.46679] 4.3 05:57:59 10° WNW 06:00:04 19° NNW 06:02:08 10° NNE
[s.n.46704] 4.3 05:58:01 10° WNW 06:00:09 19° NNW 06:02:17 10° NNE
[s.n.46712] 4.3 05:58:08 10° WNW 06:00:12 19° NNW 06:02:17 10° NNE
[s.n.46711] 4.3 05:58:16 10° WNW 06:00:21 19° NNW 06:02:26 10° NNE
[s.n.46684] 4.3 05:58:19 10° WNW 06:00:24 19° NNW 06:02:28 10° NNE
[s.n.46706] 4.3 05:58:28 10° WNW 06:00:32 19° NNW 06:02:36 10° NNE
[s.n.46678] 4.4 05:58:26 10° WNW 06:00:33 19° NNW 06:02:42 10° NNE
[s.n.46677] 4.3 05:58:36 10° WNW 06:00:40 19° NNW 06:02:44 10° NNE
[s.n.46671] 4.3 05:58:42 10° WNW 06:00:45 19° NNW 06:02:50 10° NNE
[s.n.46675] 4.4 05:58:47 10° WNW 06:00:51 19° NNW 06:02:55 10° NNE
[s.n.46674] 4.4 05:58:53 10° WNW 06:00:56 19° NNW 06:03:01 10° NNE
[s.n.46698] 4.4 05:58:59 10° WNW 06:01:02 19° NNW 06:03:06 10° NNE
[s.n.46699] 4.4 05:59:00 10° WNW 06:01:07 19° NNW 06:03:14 10° NNE
[s.n.46715] 4.4 05:59:10 10° WNW 06:01:14 19° NNW 06:03:17 10° NNE
[s.n.46714] 4.4 05:59:15 10° WNW 06:01:19 19° NNW 06:03:23 10° NNE
[s.n.46726] 4.4 05:59:21 10° WNW 06:01:25 19° NNW 06:03:29 10° NNE
[s.n.46703] 4.4 05:59:26 10° WNW 06:01:30 19° NNW 06:03:34 10° NNE
[s.n.46713] 4.4 05:59:32 10° WNW 06:01:36 19° NNW 06:03:39 10° NNE
[s.n.46717] 4.4 05:59:38 10° WNW 06:01:41 19° NNW 06:03:44 10° NNE
[s.n.46691] 4.4 05:59:39 10° WNW 06:01:46 19° NNW 06:03:53 10° NNE
[s.n.46693] 4.4 05:59:49 10° WNW 06:01:53 19° NNW 06:03:56 10° NNE
[s.n.46672] 4.4 05:59:55 10° WNW 06:01:58 18° NNW 06:04:01 10° NNE
[s.n.46701] 4.4 06:00:00 10° WNW 06:02:03 18° NNW 06:04:07 10° NNE
Cosmos 1626 Rocket 3.6 05:57:40 10° SSW 06:02:04 59° W 06:06:30 10° N
[s.n.46685] 4.4 06:00:06 10° WNW 06:02:08 18° NNW 06:04:12 10° NNE
[s.n.46709] 4.4 06:00:11 10° WNW 06:02:14 18° NNW 06:04:18 10° NNE
[s.n.46683] 4.4 06:00:16 10° WNW 06:02:19 18° NNW 06:04:22 10° NNE
[s.n.46695] 4.4 06:00:21 10° WNW 06:02:24 18° NNW 06:04:28 10° NNE
[s.n.46688] 4.4 06:00:28 10° WNW 06:02:31 18° NNW 06:04:35 10° NNE
[s.n.46729] 4.4 06:00:32 10° WNW 06:02:36 18° NNW 06:04:39 10° NNE
[s.n.46697] 4.4 06:00:36 10° WNW 06:02:38 18° NNW 06:04:42 10° NNE
[s.n.46725] 4.4 06:00:41 10° WNW 06:02:43 18° NNW 06:04:47 10° NNE
[s.n.46682] 4.4 06:00:47 10° WNW 06:02:49 18° NNW 06:04:52 10° NNE
YAOGAN 6 3.0 05:59:13 10° NNE 06:02:54 70° E 06:06:32 10° S
[s.n.46680] 4.4 06:00:53 10° WNW 06:02:55 18° NNW 06:04:58 10° NNE
[s.n.46718] 4.4 06:00:58 10° WNW 06:03:01 18° NNW 06:05:04 10° NNE
Meteor 2-1 Rocket 4.3 05:57:27 10° NNW 06:03:06 67° W 06:08:49 10° S
[s.n.46710] 4.4 06:01:04 10° WNW 06:03:07 18° NNW 06:05:09 10° NNE
CZ-4B R/B 3.7 05:59:39 10° N 06:03:15 31° WNW 06:06:58 10° SW
[s.n.46673] 4.4 06:01:15 10° WNW 06:03:17 18° NNW 06:05:21 10° NNE
[s.n.46700] 4.4 06:01:20 10° WNW 06:03:23 18° NNW 06:05:26 10° NNE
[s.n.46705] 4.4 06:01:27 10° WNW 06:03:29 18° NNW 06:05:31 10° NNE
[s.n.46692] 4.4 06:01:32 10° WNW 06:03:35 18° NNW 06:05:38 10° NNE
Spot 2 4.3 05:59:03 10° N 06:03:36 69° WNW 06:08:24 10° SSW
[s.n.46686] 4.4 06:01:38 10° WNW 06:03:40 18° NNW 06:05:43 10° NNE
Cosmos 1697 Rocket 4.3 06:00:52 10° WNW 06:03:43 14° W 06:06:35 10° SW
[s.n.46716] 4.4 06:01:44 10° WNW 06:03:46 18° NNW 06:05:48 10° NNE
[s.n.46722] 4.4 06:01:49 10° WNW 06:03:51 18° NNW 06:05:54 10° NNE
[s.n.46689] 4.4 06:01:55 10° WNW 06:03:57 18° NNW 06:05:59 10° NNE
[s.n.46681] 4.4 06:02:01 10° WNW 06:04:03 18° NNW 06:06:05 10° NNE
Uosat 12 SS-18 rocket 4.3 05:59:22 10° SSW 06:04:09 84° SE 06:08:30 10° NE
Cosmos 1023 Rocket 4.4 05:59:17 10° SSW 06:04:20 73° WNW 06:09:26 10° NNE
Lacrosse 5 rocket 3.1 06:02:14 10° WNW 06:04:31 15° NNW 06:06:51 10° NNE
Cosmos 1602 Rocket 3.6 06:00:40 10° SSW 06:05:05 74° W 06:09:34 10° N
